| time (UTC) | temp F | wind direction | speed MPH | gust MPH | rain 1hr in | rain 24hr in | rain mn in | humidity % | barometer mb |
| 20260831102701 | 70 | 94 | 4.0 | 8.0 | 0.01 | 0.06 | 0.06 | 96 | 1011.0 |
| 20260831102201 | 70 | 80 | 3.0 | 8.0 | 0.03 | 0.05 | 0.05 | 96 | 1011.1 |
| 20260831101931 | 70 | 58 | 3.0 | 6.0 | 0.03 | 0.05 | 0.05 | 96 | 1011.1 |
| 20260831101433 | 70 | 38 | 3.0 | 6.0 | 0.03 | 0.05 | 0.05 | 96 | 1011.1 |
| 20260831100701 | 70 | 74 | 3.0 | 6.0 | 0.03 | 0.05 | 0.05 | 96 | 1011.2 |
| 20260831100203 | 70 | 94 | 4.0 | 7.0 | 0.03 | 0.05 | 0.05 | 96 | 1011.2 |
| 20260831095927 | 70 | 93 | 4.0 | 7.0 | 0.03 | 0.05 | 0.05 | 96 | 1011.3 |
| 20260831095155 | 70 | 102 | 3.0 | 6.0 | 0.03 | 0.05 | 0.05 | 96 | 1011.5 |
| 20260831094928 | 71 | 116 | 3.0 | 4.0 | 0.03 | 0.05 | 0.05 | 96 | 1011.4 |
| 20260831094155 | 71 | 108 | 3.0 | 4.0 | 0.03 | 0.05 | 0.05 | 96 | 1011.5 |
| 20260831093659 | 70 | 119 | 0.0 | 2.0 | 0.03 | 0.05 | 0.05 | 96 | 1011.8 |
| 20260831093654 | 71 | 111 | 1.0 | 4.0 | 0.03 | 0.05 | 0.05 | 96 | 1011.7 |
| 20260831092923 | 70 | 119 | 0.0 | 2.0 | 0.03 | 0.05 | 0.05 | 96 | 1012.0 |
| 20260831092424 | 70 | 120 | 0.0 | 2.0 | 0.00 | 0.02 | 0.02 | 96 | 1012.2 |
| 20260831091652 | 70 | 120 | 1.0 | 2.0 | 0.00 | 0.02 | 0.02 | 96 | 1012.1 |
| 20260831091153 | 70 | 136 | 1.0 | 4.0 | 0.00 | 0.02 | 0.02 | 96 | 1012.1 |
| 20260831090652 | 70 | 135 | 2.0 | 5.0 | 0.00 | 0.02 | 0.02 | 96 | 1012.0 |
| 20260831090153 | 70 | 130 | 3.0 | 5.0 | 0.00 | 0.02 | 0.02 | 96 | 1011.7 |
| 20260831085653 | 70 | 130 | 3.0 | 7.0 | 0.00 | 0.02 | 0.02 | 96 | 1011.9 |
| 20260831085150 | 70 | 138 | 3.0 | 7.0 | 0.00 | 0.02 | 0.02 | 96 | 1011.8 |
| 20260831084648 | 70 | 137 | 3.0 | 7.0 | 0.00 | 0.02 | 0.02 | 96 | 1011.7 |
| 20260831084148 | 70 | 129 | 3.0 | 7.0 | 0.00 | 0.02 | 0.02 | 96 | 1011.9 |
| 20260831083650 | 70 | 132 | 3.0 | 7.0 | 0.00 | 0.02 | 0.02 | 96 | 1011.9 |
| 20260831083419 | 70 | 132 | 2.0 | 5.0 | 0.00 | 0.02 | 0.02 | 96 | 1012.0 |
| 20260831082646 | 70 | 119 | 2.0 | 5.0 | 0.01 | 0.02 | 0.02 | 96 | 1012.0 |
| 20260831082146 | 70 | 136 | 2.0 | 4.0 | 0.01 | 0.02 | 0.02 | 96 | 1012.0 |
| 20260831081646 | 70 | 138 | 2.0 | 4.0 | 0.01 | 0.02 | 0.02 | 96 | 1012.1 |
| 20260831081142 | 70 | 131 | 2.0 | 4.0 | 0.01 | 0.02 | 0.02 | 96 | 1012.1 |
| 20260831080645 | 70 | 131 | 2.0 | 7.0 | 0.01 | 0.02 | 0.02 | 96 | 1012.1 |
| 20260831080143 | 70 | 142 | 2.0 | 7.0 | 0.01 | 0.02 | 0.02 | 96 | 1012.1 |
| 20260831075911 | 70 | 119 | 2.0 | 5.0 | 0.01 | 0.02 | 0.02 | 96 | 1011.9 |
| 20260831075140 | 70 | 134 | 2.0 | 5.0 | 0.01 | 0.02 | 0.02 | 96 | 1011.9 |
| 20260831074639 | 70 | 129 | 2.0 | 5.0 | 0.01 | 0.02 | 0.02 | 96 | 1011.9 |
| 20260831074137 | 70 | 128 | 2.0 | 5.0 | 0.01 | 0.02 | 0.02 | 96 | 1011.9 |
| 20260831073636 | 70 | 126 | 1.0 | 5.0 | 0.01 | 0.02 | 0.02 | 96 | 1012.0 |
| 20260831073410 | 70 | 134 | 1.0 | 4.0 | 0.01 | 0.02 | 0.02 | 96 | 1012.1 |
| 20260831072634 | 70 | 129 | 1.0 | 4.0 | 0.00 | 0.01 | 0.01 | 95 | 1012.2 |
| 20260831072138 | 70 | 128 | 2.0 | 6.0 | 0.00 | 0.01 | 0.01 | 95 | 1012.0 |
| 20260831072133 | 70 | 128 | 1.0 | 4.0 | 0.00 | 0.01 | 0.01 | 95 | 1012.1 |
| 20260831071128 | 70 | 126 | 2.0 | 6.0 | 0.00 | 0.01 | 0.01 | 95 | 1012.1 |
| 20260831070629 | 71 | 115 | 2.0 | 4.0 | 0.00 | 0.01 | 0.01 | 95 | 1012.2 |
| 20260831070128 | 71 | 115 | 3.0 | 4.0 | 0.00 | 0.01 | 0.01 | 95 | 1012.3 |
| 20260831065624 | 71 | 124 | 2.0 | 4.0 | 0.00 | 0.01 | 0.01 | 95 | 1012.3 |
| 20260831065123 | 71 | 128 | 2.0 | 5.0 | 0.01 | 0.01 | 0.01 | 95 | 1012.5 |
| 20260831064623 | 71 | 132 | 2.0 | 5.0 | 0.01 | 0.01 | 0.01 | 95 | 1012.7 |
| 20260831064123 | 71 | 159 | 1.0 | 4.0 | 0.01 | 0.01 | 0.01 | 95 | 1012.8 |
| 20260831063850 | 71 | 159 | 1.0 | 4.0 | 0.01 | 0.01 | 0.01 | 95 | 1013.0 |
| 20260831063119 | 71 | 179 | 1.0 | 3.0 | 0.01 | 0.01 | 0.01 | 95 | 1013.3 |
| 20260831062620 | 71 | 183 | 1.0 | 3.0 | 0.01 | 0.01 | 0.01 | 95 | 1013.5 |
| 20260831062116 | 71 | 183 | 0.0 | 3.0 | 0.01 | 0.01 | 0.01 | 95 | 1013.7 |
| 20260831061617 | 71 | 183 | 0.0 | 1.0 | 0.01 | 0.01 | 0.01 | 94 | 1013.6 |
| 20260831061116 | 71 | 183 | 1.0 | 2.0 | 0.01 | 0.01 | 0.01 | 94 | 1013.6 |
| 20260831060612 | 72 | 183 | 1.0 | 2.0 | 0.01 | 0.01 | 0.01 | 94 | 1013.5 |
| 20260831060114 | 72 | 183 | 0.0 | 2.0 | 0.01 | 0.01 | 0.01 | 94 | 1013.7 |
| 20260831055843 | 72 | 183 | 0.0 | 2.0 | 0.01 | 0.01 | 0.01 | 94 | 1013.6 |
| 20260831055110 | 72 | 183 | 1.0 | 3.0 | 0.00 | 0.00 | 0.00 | 94 | 1013.5 |
| 20260831054609 | 72 | 184 | 1.0 | 3.0 | 0.00 | 0.00 | 0.00 | 94 | 1013.6 |
| 20260831054108 | 72 | 184 | 1.0 | 2.0 | 0.00 | 0.00 | 0.00 | 94 | 1013.6 |
| 20260831053606 | 72 | 184 | 0.0 | 2.0 | 0.00 | 0.00 | 0.00 | 94 | 1013.5 |
| 20260831053107 | 72 | 184 | 0.0 | 3.0 | 0.00 | 0.00 | 0.00 | 94 | 1013.6 |
| 20260831052608 | 72 | 184 | 0.0 | 3.0 | 0.00 | 0.00 | 0.00 | 94 | 1013.5 |
| 20260831052104 | 72 | 167 | 0.0 | 3.0 | 0.00 | 0.00 | 0.00 | 94 | 1013.5 |
| 20260831051604 | 72 | 166 | 1.0 | 3.0 | 0.00 | 0.00 | 0.00 | 94 | 1013.5 |
| 20260831051103 | 72 | 166 | 1.0 | 4.0 | 0.00 | 0.00 | 0.00 | 93 | 1013.7 |
| 20260831051058 | 72 | 166 | 1.0 | 4.0 | 0.00 | 0.00 | 0.00 | 93 | 1013.6 |
| 20260831050058 | 72 | 165 | 0.0 | 4.0 | 0.00 | 0.00 | 0.00 | 93 | 1013.6 |
| 20260831045556 | 72 | 164 | 0.0 | 4.0 | 0.00 | 0.00 | 0.00 | 93 | 1013.5 |
| 20260831045056 | 72 | 163 | 0.0 | 2.0 | 0.00 | 0.00 | 0.00 | 93 | 1013.5 |
| 20260831044557 | 72 | 169 | 0.0 | 2.0 | 0.00 | 0.00 | 0.00 | 93 | 1013.4 |
| 20260831044053 | 72 | 169 | 0.0 | 2.0 | 0.00 | 0.00 | 0.00 | 92 | 1013.5 |
| 20260831043552 | 72 | 169 | 1.0 | 5.0 | 0.00 | 0.00 | 0.00 | 92 | 1013.3 |
| 20260831043052 | 72 | 169 | 1.0 | 5.0 | 0.00 | 0.00 | 0.00 | 92 | 1013.2 |
| 20260831042552 | 72 | 169 | 0.0 | 4.0 | 0.00 | 0.00 | 0.00 | 92 | 1013.2 |
| 20260831042050 | 72 | 142 | 1.0 | 3.0 | 0.00 | 0.00 | 0.00 | 92 | 1013.0 |
| 20260831041550 | 73 | 142 | 1.0 | 4.0 | 0.00 | 0.00 | 0.00 | 92 | 1012.9 |
| 20260831041049 | 73 | 136 | 1.0 | 4.0 | 0.00 | 0.00 | 0.00 | 91 | 1012.8 |
| 20260831040546 | 73 | 137 | 1.0 | 3.0 | 0.00 | 0.00 | 0.00 | 91 | 1012.9 |
| 20260831040044 | 73 | 136 | 1.0 | 5.0 | 0.00 | 0.00 | 0.00 | 91 | 1012.9 |
| 20260831035544 | 73 | 139 | 1.0 | 5.0 | 0.00 | 0.00 | 0.00 | 91 | 1013.0 |
| 20260831035044 | 73 | 186 | 2.0 | 4.0 | 0.00 | 0.00 | 0.00 | 90 | 1013.2 |
| 20260831034545 | 73 | 182 | 2.0 | 4.0 | 0.00 | 0.00 | 0.00 | 90 | 1013.2 |
| 20260831034038 | 73 | 166 | 2.0 | 5.0 | 0.00 | 0.00 | 0.00 | 90 | 1013.3 |
| 20260831033537 | 73 | 167 | 2.0 | 5.0 | 0.00 | 0.00 | 0.00 | 90 | 1013.3 |
| 20260831033037 | 73 | 103 | 1.0 | 3.0 | 0.00 | 0.00 | 0.00 | 90 | 1013.2 |
| 20260831032536 | 73 | 100 | 1.0 | 4.0 | 0.00 | 0.00 | 0.00 | 90 | 1013.2 |
| 20260831032306 | 73 | 93 | 1.0 | 4.0 | 0.00 | 0.00 | 0.00 | 90 | 1013.1 |
| 20260831031532 | 73 | 84 | 1.0 | 3.0 | 0.00 | 0.00 | 0.00 | 90 | 1013.0 |
| 20260831031030 | 73 | 84 | 0.0 | 3.0 | 0.00 | 0.00 | 0.00 | 90 | 1013.1 |
| 20260831030531 | 73 | 84 | 0.0 | 1.0 | 0.00 | 0.00 | 0.00 | 89 | 1013.0 |
| 20260831030027 | 73 | 84 | 0.0 | 0.0 | 0.00 | 0.00 | 0.00 | 89 | 1012.8 |
| 20260831025758 | 73 | 84 | 0.0 | 3.0 | 0.00 | 0.00 | 0.00 | 89 | 1012.8 |
| 20260831025024 | 73 | 84 | 0.0 | 3.0 | 0.00 | 0.00 | 0.00 | 89 | 1012.9 |
| 20260831024522 | 73 | 84 | 0.0 | 3.0 | 0.00 | 0.00 | 0.00 | 89 | 1012.8 |
| 20260831024022 | 73 | 83 | 1.0 | 3.0 | 0.00 | 0.00 | 0.00 | 89 | 1012.8 |
| 20260831023523 | 73 | 83 | 1.0 | 3.0 | 0.00 | 0.00 | 0.00 | 88 | 1012.7 |
| 20260831023251 | 73 | 83 | 1.0 | 3.0 | 0.00 | 0.00 | 0.00 | 88 | 1012.7 |
| 20260831022516 | 73 | 83 | 1.0 | 4.0 | 0.00 | 0.00 | 0.00 | 88 | 1012.7 |
| 20260831022017 | 74 | 82 | 1.0 | 4.0 | 0.00 | 0.00 | 0.00 | 88 | 1012.7 |
| 20260831021516 | 74 | 69 | 1.0 | 3.0 | 0.00 | 0.00 | 0.00 | 88 | 1012.7 |
| 20260831021015 | 74 | 69 | 0.0 | 2.0 | 0.00 | 0.00 | 0.00 | 88 | 1012.9 |
| 20260831020513 | 74 | 69 | 1.0 | 2.0 | 0.00 | 0.00 | 0.00 | 88 | 1012.8 |
| 20260831020244 | 74 | 69 | 1.0 | 4.0 | 0.00 | 0.00 | 0.00 | 88 | 1012.8 |
| 20260831015509 | 74 | 69 | 2.0 | 4.0 | 0.00 | 0.00 | 0.00 | 88 | 1012.8 |
| 20260831015003 | 74 | 66 | 2.0 | 5.0 | 0.00 | 0.00 | 0.00 | 88 | 1012.6 |
| 20260831014730 | 74 | 65 | 3.0 | 7.0 | 0.00 | 0.00 | 0.00 | 89 | 1012.4 |
| 20260831014230 | 74 | 70 | 3.0 | 7.0 | 0.00 | 0.00 | 0.00 | 89 | 1012.5 |
| 20260831013458 | 74 | 74 | 3.0 | 6.0 | 0.00 | 0.00 | 0.00 | 89 | 1012.4 |
| 20260831012958 | 74 | 82 | 3.0 | 4.0 | 0.00 | 0.00 | 0.00 | 89 | 1012.4 |
| 20260831012459 | 74 | 80 | 2.0 | 4.0 | 0.00 | 0.00 | 0.00 | 88 | 1012.5 |
| 20260831011959 | 74 | 80 | 2.0 | 4.0 | 0.00 | 0.00 | 0.00 | 88 | 1012.6 |
| 20260831011726 | 74 | 78 | 2.0 | 4.0 | 0.00 | 0.00 | 0.00 | 88 | 1012.7 |
| 20260831010955 | 75 | 71 | 1.0 | 4.0 | 0.00 | 0.00 | 0.00 | 88 | 1012.6 |
| 20260831010455 | 75 | 46 | 0.0 | 2.0 | 0.00 | 0.00 | 0.00 | 87 | 1012.5 |
| 20260831005954 | 75 | 46 | 1.0 | 4.0 | 0.00 | 0.00 | 0.00 | 87 | 1012.4 |
| 20260831005455 | 75 | 46 | 1.0 | 4.0 | 0.00 | 0.00 | 0.00 | 87 | 1012.4 |
| 20260831004954 | 75 | 51 | 1.0 | 3.0 | 0.00 | 0.00 | 0.00 | 86 | 1012.2 |
| 20260831004457 | 75 | 51 | 2.0 | 5.0 | 0.00 | 0.00 | 0.00 | 86 | 1012.1 |
| 20260831003951 | 75 | 9 | 3.0 | 5.0 | 0.00 | 0.00 | 0.00 | 86 | 1012.1 |
| 20260831003450 | 75 | 19 | 3.0 | 6.0 | 0.00 | 0.00 | 0.00 | 86 | 1012.1 |
| 20260831002950 | 76 | 22 | 3.0 | 8.0 | 0.00 | 0.00 | 0.00 | 86 | 1012.1 |
| 20260831002451 | 76 | 42 | 4.0 | 9.0 | 0.00 | 0.00 | 0.00 | 85 | 1012.2 |
| 20260831001951 | 76 | 34 | 4.0 | 10.0 | 0.00 | 0.00 | 0.00 | 85 | 1012.1 |
| 20260831001447 | 76 | 17 | 4.0 | 10.0 | 0.00 | 0.00 | 0.00 | 84 | 1012.0 |
| 20260831001218 | 76 | 35 | 2.0 | 5.0 | 0.00 | 0.00 | 0.00 | 83 | 1012.0 |
| 20260831000447 | 77 | 51 | 2.0 | 6.0 | 0.00 | 0.00 | 0.00 | 83 | 1011.9 |
| 20260830235946 | 77 | 44 | 2.0 | 6.0 | 0.00 | 0.00 | 0.00 | 83 | 1011.8 |
| 20260830235446 | 77 | 39 | 2.0 | 5.0 | 0.00 | 0.00 | 0.00 | 83 | 1012.1 |
| 20260830234946 | 77 | 36 | 2.0 | 5.0 | 0.00 | 0.00 | 0.00 | 83 | 1012.0 |
| 20260830234442 | 77 | 22 | 3.0 | 4.0 | 0.00 | 0.00 | 0.00 | 82 | 1012.1 |
| 20260830233943 | 77 | 62 | 2.0 | 4.0 | 0.00 | 0.00 | 0.00 | 82 | 1012.0 |
| 20260830233443 | 77 | 69 | 2.0 | 4.0 | 0.00 | 0.00 | 0.00 | 82 | 1011.9 |
| 20260830232941 | 77 | 64 | 2.0 | 4.0 | 0.00 | 0.00 | 0.00 | 82 | 1011.9 |
| 20260830232437 | 77 | 78 | 2.0 | 4.0 | 0.00 | 0.00 | 0.00 | 81 | 1011.8 |
| 20260830231939 | 77 | 76 | 2.0 | 4.0 | 0.00 | 0.00 | 0.00 | 81 | 1011.9 |
| 20260830231432 | 77 | 78 | 2.0 | 5.0 | 0.00 | 0.00 | 0.00 | 80 | 1011.7 |
| 20260830230932 | 77 | 26 | 3.0 | 7.0 | 0.00 | 0.00 | 0.00 | 80 | 1011.9 |
| 20260830230432 | 77 | 13 | 4.0 | 9.0 | 0.00 | 0.00 | 0.00 | 79 | 1011.8 |
| 20260830230202 | 77 | 61 | 5.0 | 10.0 | 0.00 | 0.00 | 0.00 | 78 | 1011.7 |
| 20260830225430 | 78 | 5 | 4.0 | 10.0 | 0.00 | 0.00 | 0.00 | 78 | 1011.8 |
| 20260830225200 | 78 | 26 | 4.0 | 13.0 | 0.00 | 0.00 | 0.00 | 78 | 1011.7 |
| 20260830224426 | 78 | 50 | 5.0 | 13.0 | 0.00 | 0.00 | 0.00 | 78 | 1011.7 |
| 20260830223924 | 78 | 315 | 4.0 | 9.0 | 0.00 | 0.00 | 0.00 | 78 | 1011.6 |
| 20260830223427 | 78 | 42 | 3.0 | 7.0 | 0.00 | 0.00 | 0.00 | 78 | 1011.2 |
| 20260830223422 | 78 | 19 | 3.0 | 8.0 | 0.00 | 0.00 | 0.00 | 78 | 1011.5 |
| 20260830222421 | 78 | 69 | 3.0 | 6.0 | 0.00 | 0.00 | 0.00 | 78 | 1011.1 |
| 20260830221923 | 78 | 56 | 3.0 | 5.0 | 0.00 | 0.00 | 0.00 | 78 | 1011.0 |
| 20260830221646 | 78 | 68 | 2.0 | 5.0 | 0.00 | 0.00 | 0.00 | 77 | 1010.9 |
| 20260830220919 | 79 | 86 | 3.0 | 6.0 | 0.00 | 0.00 | 0.00 | 77 | 1011.1 |
| 20260830220915 | 78 | 33 | 2.0 | 6.0 | 0.00 | 0.00 | 0.00 | 77 | 1011.0 |
| 20260830215914 | 79 | 355 | 3.0 | 8.0 | 0.00 | 0.00 | 0.00 | 77 | 1011.3 |
| 20260830215412 | 79 | 30 | 3.0 | 10.0 | 0.00 | 0.00 | 0.00 | 76 | 1011.3 |
| 20260830214912 | 79 | 65 | 3.0 | 10.0 | 0.00 | 0.00 | 0.00 | 77 | 1011.4 |
| 20260830214405 | 79 | 51 | 3.0 | 7.0 | 0.00 | 0.00 | 0.00 | 77 | 1011.4 |
| 20260830213906 | 79 | 90 | 3.0 | 8.0 | 0.00 | 0.00 | 0.00 | 77 | 1011.5 |
| 20260830213637 | 79 | 9 | 3.0 | 8.0 | 0.00 | 0.00 | 0.00 | 76 | 1011.4 |
| 20260830212911 | 80 | 44 | 4.0 | 10.0 | 0.00 | 0.00 | 0.00 | 75 | 1011.0 |
| 20260830212906 | 79 | 11 | 4.0 | 8.0 | 0.00 | 0.00 | 0.00 | 76 | 1011.2 |
| 20260830211906 | 80 | 83 | 3.0 | 10.0 | 0.00 | 0.00 | 0.00 | 74 | 1011.1 |
| 20260830211406 | 82 | 77 | 2.0 | 8.0 | 0.00 | 0.00 | 0.00 | 73 | 1011.1 |
| 20260830211131 | 82 | 149 | 1.0 | 2.0 | 0.00 | 0.00 | 0.00 | 71 | 1011.2 |
| 20260830210359 | 82 | 149 | 1.0 | 2.0 | 0.00 | 0.00 | 0.00 | 71 | 1011.3 |
| 20260830205859 | 81 | 149 | 1.0 | 3.0 | 0.00 | 0.00 | 0.00 | 71 | 1011.2 |
| 20260830205358 | 81 | 149 | 1.0 | 3.0 | 0.00 | 0.00 | 0.00 | 71 | 1011.2 |
| 20260830205130 | 82 | 153 | 1.0 | 3.0 | 0.00 | 0.00 | 0.00 | 71 | 1011.4 |
| 20260830204356 | 82 | 176 | 1.0 | 2.0 | 0.00 | 0.00 | 0.00 | 71 | 1011.6 |
| 20260830203851 | 82 | 178 | 2.0 | 4.0 | 0.00 | 0.00 | 0.00 | 70 | 1011.6 |
| 20260830203351 | 82 | 181 | 2.0 | 4.0 | 0.00 | 0.00 | 0.00 | 69 | 1011.6 |
| 20260830202852 | 82 | 190 | 1.0 | 4.0 | 0.00 | 0.00 | 0.00 | 69 | 1011.7 |
| 20260830202352 | 82 | 194 | 1.0 | 2.0 | 0.00 | 0.00 | 0.00 | 70 | 1011.7 |
| 20260830201853 | 82 | 194 | 1.0 | 3.0 | 0.00 | 0.00 | 0.00 | 70 | 1011.7 |
| 20260830201353 | 82 | 194 | 1.0 | 4.0 | 0.00 | 0.00 | 0.00 | 70 | 1011.7 |
| 20260830200850 | 82 | 186 | 2.0 | 4.0 | 0.00 | 0.00 | 0.00 | 70 | 1011.8 |
| 20260830200352 | 82 | 182 | 1.0 | 4.0 | 0.00 | 0.00 | 0.00 | 69 | 1011.7 |
| 20260830200122 | 82 | 186 | 2.0 | 5.0 | 0.00 | 0.00 | 0.00 | 69 | 1011.8 |
| 20260830195351 | 82 | 214 | 2.0 | 5.0 | 0.00 | 0.00 | 0.00 | 69 | 1011.9 |
| 20260830194849 | 82 | 187 | 2.0 | 5.0 | 0.00 | 0.00 | 0.00 | 69 | 1011.9 |
| 20260830194348 | 82 | 202 | 3.0 | 8.0 | 0.00 | 0.00 | 0.00 | 69 | 1011.8 |
| 20260830194119 | 82 | 173 | 3.0 | 8.0 | 0.00 | 0.00 | 0.00 | 68 | 1011.9 |
| 20260830193343 | 83 | 195 | 2.0 | 6.0 | 0.00 | 0.00 | 0.00 | 68 | 1011.9 |
| 20260830193117 | 83 | 207 | 2.0 | 5.0 | 0.00 | 0.00 | 0.00 | 68 | 1011.9 |
| 20260830192345 | 83 | 213 | 2.0 | 6.0 | 0.00 | 0.00 | 0.00 | 66 | 1012.0 |
| 20260830191843 | 82 | 180 | 2.0 | 7.0 | 0.00 | 0.00 | 0.00 | 67 | 1012.0 |
| 20260830191341 | 82 | 194 | 2.0 | 7.0 | 0.00 | 0.00 | 0.00 | 67 | 1011.9 |
| 20260830190841 | 83 | 178 | 2.0 | 5.0 | 0.00 | 0.00 | 0.00 | 67 | 1012.0 |
| 20260830190339 | 83 | 184 | 3.0 | 6.0 | 0.00 | 0.00 | 0.00 | 67 | 1012.0 |
| 20260830185838 | 83 | 213 | 3.0 | 7.0 | 0.00 | 0.00 | 0.00 | 66 | 1011.9 |
| 20260830185339 | 83 | 158 | 2.0 | 7.0 | 0.00 | 0.00 | 0.00 | 66 | 1011.9 |
| 20260830184837 | 83 | 232 | 2.0 | 7.0 | 0.00 | 0.00 | 0.00 | 66 | 1011.7 |
| 20260830184335 | 83 | 184 | 3.0 | 7.0 | 0.00 | 0.00 | 0.00 | 65 | 1011.6 |
| 20260830183836 | 83 | 275 | 2.0 | 6.0 | 0.00 | 0.00 | 0.00 | 65 | 1011.6 |
| 20260830183334 | 84 | 169 | 2.0 | 6.0 | 0.00 | 0.00 | 0.00 | 65 | 1011.5 |
| 20260830182831 | 84 | 106 | 3.0 | 7.0 | 0.00 | 0.00 | 0.00 | 67 | 1011.4 |
| 20260830182329 | 83 | 107 | 3.0 | 8.0 | 0.00 | 0.00 | 0.00 | 66 | 1011.3 |
| 20260830181830 | 83 | 281 | 4.0 | 10.0 | 0.00 | 0.00 | 0.00 | 65 | 1011.1 |
| 20260830181329 | 83 | 148 | 3.0 | 10.0 | 0.00 | 0.00 | 0.00 | 65 | 1011.2 |
| 20260830181102 | 83 | 338 | 2.0 | 6.0 | 0.00 | 0.00 | 0.00 | 64 | 1011.1 |
| 20260830180324 | 83 | 136 | 2.0 | 6.0 | 0.00 | 0.00 | 0.00 | 66 | 1011.2 |
| 20260830175823 | 83 | 172 | 1.0 | 6.0 | 0.00 | 0.00 | 0.00 | 67 | 1011.3 |
| 20260830175323 | 83 | 171 | 1.0 | 5.0 | 0.00 | 0.00 | 0.00 | 67 | 1011.3 |
| 20260830175054 | 83 | 185 | 2.0 | 6.0 | 0.00 | 0.00 | 0.00 | 65 | 1011.5 |
| 20260830174323 | 82 | 219 | 2.0 | 6.0 | 0.00 | 0.00 | 0.00 | 66 | 1011.5 |
| 20260830174055 | 82 | 300 | 2.0 | 5.0 | 0.00 | 0.00 | 0.00 | 65 | 1011.4 |
| 20260830173321 | 83 | 146 | 3.0 | 6.0 | 0.00 | 0.00 | 0.00 | 66 | 1011.3 |
| 20260830172819 | 83 | 159 | 2.0 | 6.0 | 0.00 | 0.00 | 0.00 | 65 | 1011.3 |
| 20260830172320 | 83 | 180 | 2.0 | 5.0 | 0.00 | 0.00 | 0.00 | 67 | 1011.3 |
| 20260830171819 | 82 | 242 | 3.0 | 7.0 | 0.00 | 0.00 | 0.00 | 66 | 1011.5 |
| 20260830171317 | 82 | 319 | 3.0 | 7.0 | 0.00 | 0.00 | 0.00 | 66 | 1011.5 |
| 20260830170819 | 82 | 197 | 3.0 | 7.0 | 0.00 | 0.00 | 0.00 | 67 | 1011.5 |
| 20260830170313 | 82 | 164 | 2.0 | 7.0 | 0.00 | 0.00 | 0.00 | 65 | 1011.4 |
| 20260830165813 | 82 | 159 | 2.0 | 5.0 | 0.00 | 0.00 | 0.00 | 68 | 1011.4 |
| 20260830165315 | 82 | 228 | 3.0 | 7.0 | 0.00 | 0.00 | 0.00 | 68 | 1011.5 |
| 20260830164815 | 82 | 194 | 2.0 | 5.0 | 0.00 | 0.00 | 0.00 | 67 | 1011.8 |
| 20260830164811 | 82 | 178 | 3.0 | 7.0 | 0.00 | 0.00 | 0.00 | 66 | 1011.6 |
| 20260830163811 | 81 | 267 | 2.0 | 6.0 | 0.00 | 0.00 | 0.00 | 68 | 1011.6 |
| 20260830163311 | 81 | 191 | 3.0 | 10.0 | 0.00 | 0.00 | 0.00 | 71 | 1011.6 |
| 20260830163307 | 81 | 206 | 3.0 | 7.0 | 0.00 | 0.00 | 0.00 | 69 | 1011.6 |
| 20260830162307 | 81 | 202 | 3.0 | 10.0 | 0.00 | 0.00 | 0.00 | 69 | 1011.8 |
| 20260830161807 | 80 | 200 | 3.0 | 7.0 | 0.00 | 0.00 | 0.00 | 70 | 1011.9 |
| 20260830161307 | 80 | 268 | 3.0 | 9.0 | 0.00 | 0.00 | 0.00 | 70 | 1012.0 |
| 20260830160807 | 80 | 207 | 4.0 | 9.0 | 0.00 | 0.00 | 0.00 | 71 | 1012.1 |
| 20260830160308 | 79 | 160 | 3.0 | 7.0 | 0.00 | 0.00 | 0.00 | 70 | 1012.2 |
| 20260830155805 | 79 | 231 | 3.0 | 9.0 | 0.00 | 0.00 | 0.00 | 70 | 1012.2 |
| 20260830155306 | 80 | 227 | 3.0 | 9.0 | 0.00 | 0.00 | 0.00 | 69 | 1012.3 |
| 20260830154809 | 80 | 215 | 3.0 | 8.0 | 0.00 | 0.00 | 0.00 | 70 | 1012.1 |
| 20260830154302 | 79 | 172 | 3.0 | 8.0 | 0.00 | 0.00 | 0.00 | 70 | 1012.0 |
| 20260830153804 | 80 | 211 | 3.0 | 7.0 | 0.00 | 0.00 | 0.00 | 70 | 1011.9 |
| 20260830153303 | 80 | 229 | 3.0 | 10.0 | 0.00 | 0.00 | 0.00 | 69 | 1012.0 |
| 20260830152804 | 79 | 235 | 4.0 | 12.0 | 0.00 | 0.00 | 0.00 | 70 | 1011.9 |
| 20260830152259 | 79 | 197 | 5.0 | 12.0 | 0.00 | 0.00 | 0.00 | 72 | 1012.0 |
| 20260830151759 | 78 | 184 | 5.0 | 10.0 | 0.00 | 0.00 | 0.00 | 73 | 1012.1 |
| 20260830151259 | 78 | 175 | 3.0 | 7.0 | 0.00 | 0.00 | 0.00 | 74 | 1012.2 |
| 20260830150759 | 77 | 193 | 3.0 | 9.0 | 0.00 | 0.00 | 0.00 | 75 | 1012.2 |
| 20260830150257 | 77 | 236 | 3.0 | 9.0 | 0.00 | 0.00 | 0.00 | 75 | 1012.2 |
| 20260830145759 | 77 | 211 | 3.0 | 8.0 | 0.00 | 0.00 | 0.00 | 75 | 1012.1 |
| 20260830145526 | 76 | 181 | 3.0 | 8.0 | 0.00 | 0.00 | 0.00 | 77 | 1012.0 |
| 20260830144756 | 77 | 188 | 2.0 | 5.0 | 0.00 | 0.00 | 0.00 | 79 | 1012.0 |
| 20260830144253 | 76 | 161 | 2.0 | 7.0 | 0.00 | 0.00 | 0.00 | 80 | 1012.0 |
| 20260830143753 | 76 | 165 | 2.0 | 7.0 | 0.00 | 0.00 | 0.00 | 80 | 1011.9 |
| 20260830143253 | 76 | 160 | 2.0 | 5.0 | 0.00 | 0.00 | 0.00 | 81 | 1011.9 |
| 20260830142752 | 76 | 140 | 2.0 | 7.0 | 0.00 | 0.00 | 0.00 | 82 | 1011.8 |
| 20260830142252 | 75 | 143 | 3.0 | 8.0 | 0.00 | 0.00 | 0.00 | 82 | 1011.9 |
| 20260830142246 | 74 | 151 | 3.0 | 8.0 | 0.00 | 0.00 | 0.00 | 84 | 1011.8 |
| 20260830141244 | 74 | 165 | 2.0 | 6.0 | 0.00 | 0.00 | 0.00 | 84 | 1012.0 |
| 20260830140743 | 73 | 166 | 3.0 | 6.0 | 0.00 | 0.00 | 0.00 | 84 | 1012.0 |
| 20260830140243 | 73 | 161 | 2.0 | 6.0 | 0.00 | 0.00 | 0.00 | 85 | 1012.1 |
| 20260830135744 | 73 | 178 | 3.0 | 7.0 | 0.00 | 0.00 | 0.00 | 86 | 1012.3 |
| 20260830135244 | 72 | 169 | 3.0 | 7.0 | 0.00 | 0.00 | 0.00 | 86 | 1012.3 |
| 20260830134743 | 72 | 144 | 2.0 | 5.0 | 0.00 | 0.00 | 0.00 | 87 | 1012.3 |
| 20260830134242 | 72 | 138 | 2.0 | 6.0 | 0.00 | 0.00 | 0.00 | 87 | 1012.1 |
| 20260830133745 | 71 | 169 | 2.0 | 6.0 | 0.00 | 0.00 | 0.00 | 87 | 1012.3 |
| 20260830133240 | 71 | 165 | 2.0 | 5.0 | 0.00 | 0.00 | 0.00 | 87 | 1012.4 |
| 20260830132739 | 71 | 163 | 2.0 | 7.0 | 0.00 | 0.00 | 0.00 | 87 | 1012.4 |
| 20260830132240 | 71 | 128 | 2.0 | 7.0 | 0.00 | 0.00 | 0.00 | 87 | 1012.4 |
| 20260830131739 | 71 | 136 | 2.0 | 6.0 | 0.00 | 0.00 | 0.00 | 87 | 1012.5 |
| 20260830131238 | 71 | 172 | 3.0 | 6.0 | 0.00 | 0.00 | 0.00 | 87 | 1012.5 |
| 20260830131012 | 71 | 171 | 2.0 | 6.0 | 0.00 | 0.00 | 0.00 | 88 | 1012.5 |
| 20260830130507 | 70 | 150 | 2.0 | 5.0 | 0.00 | 0.00 | 0.00 | 88 | 1012.5 |
| 20260830125735 | 70 | 153 | 2.0 | 6.0 | 0.00 | 0.00 | 0.00 | 89 | 1012.3 |
| 20260830125235 | 70 | 136 | 2.0 | 6.0 | 0.00 | 0.00 | 0.00 | 89 | 1012.1 |
| 20260830124739 | 69 | 142 | 2.0 | 6.0 | 0.00 | 0.00 | 0.00 | 90 | 1012.4 |
| 20260830124735 | 70 | 134 | 2.0 | 5.0 | 0.00 | 0.00 | 0.00 | 89 | 1012.3 |
| 20260830123736 | 69 | 144 | 2.0 | 6.0 | 0.00 | 0.00 | 0.00 | 90 | 1012.4 |
| 20260830123231 | 69 | 142 | 2.0 | 5.0 | 0.00 | 0.00 | 0.00 | 90 | 1012.5 |
| 20260830122731 | 69 | 141 | 2.0 | 4.0 | 0.00 | 0.00 | 0.00 | 90 | 1012.6 |
| 20260830122232 | 69 | 132 | 2.0 | 4.0 | 0.00 | 0.00 | 0.00 | 90 | 1012.4 |
| 20260830122002 | 69 | 132 | 2.0 | 5.0 | 0.00 | 0.00 | 0.00 | 90 | 1012.3 |
| 20260830121502 | 69 | 132 | 2.0 | 5.0 | 0.00 | 0.00 | 0.00 | 90 | 1012.3 |
| 20260830120732 | 69 | 139 | 3.0 | 7.0 | 0.00 | 0.00 | 0.00 | 90 | 1012.2 |
| 20260830120226 | 69 | 136 | 3.0 | 7.0 | 0.00 | 0.00 | 0.00 | 90 | 1012.2 |
| 20260830115728 | 69 | 130 | 2.0 | 5.0 | 0.00 | 0.00 | 0.00 | 90 | 1012.2 |
| 20260830115227 | 69 | 135 | 2.0 | 7.0 | 0.00 | 0.00 | 0.00 | 90 | 1012.1 |
| 20260830114728 | 69 | 140 | 2.0 | 7.0 | 0.00 | 0.00 | 0.00 | 90 | 1012.0 |
| 20260830114228 | 69 | 157 | 2.0 | 6.0 | 0.00 | 0.00 | 0.00 | 90 | 1012.0 |
| 20260830113728 | 69 | 141 | 3.0 | 5.0 | 0.00 | 0.00 | 0.00 | 90 | 1011.9 |
| 20260830113223 | 69 | 140 | 3.0 | 7.0 | 0.00 | 0.00 | 0.00 | 90 | 1011.8 |
| 20260830112720 | 69 | 134 | 3.0 | 5.0 | 0.00 | 0.00 | 0.00 | 90 | 1011.8 |
| 20260830112451 | 69 | 136 | 3.0 | 5.0 | 0.00 | 0.00 | 0.00 | 90 | 1011.8 |
| 20260830111718 | 69 | 134 | 3.0 | 7.0 | 0.00 | 0.00 | 0.00 | 90 | 1011.9 |
| 20260830111219 | 69 | 132 | 3.0 | 7.0 | 0.00 | 0.00 | 0.00 | 90 | 1011.9 |
| 20260830110720 | 69 | 131 | 3.0 | 5.0 | 0.00 | 0.00 | 0.00 | 90 | 1011.9 |
| 20260830110218 | 69 | 112 | 2.0 | 4.0 | 0.00 | 0.00 | 0.00 | 90 | 1011.8 |
| 20260830105719 | 69 | 113 | 2.0 | 7.0 | 0.00 | 0.00 | 0.00 | 90 | 1011.7 |
| 20260830105444 | 69 | 111 | 3.0 | 7.0 | 0.00 | 0.00 | 0.00 | 89 | 1011.6 |
| 20260830104945 | 69 | 126 | 2.0 | 7.0 | 0.00 | 0.00 | 0.00 | 89 | 1011.6 |
| 20260830104210 | 69 | 142 | 2.0 | 7.0 | 0.00 | 0.00 | 0.00 | 89 | 1011.7 |
| 20260830103710 | 69 | 141 | 2.0 | 7.0 | 0.00 | 0.00 | 0.00 | 89 | 1011.7 |
| 20260830103208 | 69 | 146 | 2.0 | 7.0 | 0.00 | 0.00 | 0.00 | 89 | 1011.7 |